Spirit of St Louis, MO

7:28 AM CST on December 15, 2019 (GMT -0600)
Spirit Of Saint Louis

Weather History for KSUS - November, 2019

Change the Weather History Date:

Sunday, November 17, 2019

  Actual Average Record
Temperature  
Mean Temperature 40 °F -  
Max Temperature 53 °F 53 °F 82 °F (2016)
Min Temperature 28 °F 32 °F 14 °F (1997)
Degree Days  
Heating Degree Days 24    
Moisture  
Dew Point 35 °F    
Average Humidity 76    
Maximum Humidity 92    
Minimum Humidity 48    
Precipitation  
Precipitation 0.00 in - - ()
Sea Level Pressure  
Sea Level Pressure 29.99 in    
Wind  
Wind Speed 4 mph (WSW)    
Max Wind Speed 12 mph    
Max Gust Speed -    
Visibility 8 miles    
Events Rain    
Averages and records for this station are not official NWS values.
T = Trace of Precipitation, MM = Missing Value Source: NWS Daily Summary

Daily Weather History Graph

Daily Weather History Graph

Search for Another Location

Airport or City:

Astronomy

Nov. 17, 2019 Rise Set
Actual Time 6:46 AM CST 4:47 PM CST
Civil Twilight 6:18 AM CST 5:16 PM CST
Nautical Twilight 5:45 AM CST 5:48 PM CST
Astronomical Twilight 5:14 AM CST 6:20 PM CST
Moon 9:25 PM CST (11/17) 11:31 AM CST (11/17)
Length of Visible Light 10h 58m
Length of Day
10h 01m
Waning Gibbous, 73% of the Moon is Illuminated
Nov 17
Waning Gibbous
Nov 19
Last Quarter
Nov 26
New
Dec 4
First Quarter
Dec 11
Full

Hourly Weather History & Observations

Time (CST) Temp. Windchill Dew Point Humidity Pressure Visibility Wind Dir Wind Speed Gust Speed Precip Events Conditions
12:54 AM 28.9 °F 23.9 °F 27.0 °F 92% 30.15 in 5.0 mi ENE 4.6 mph - N/A   Clear
1:54 AM 30.0 °F - 27.0 °F 88% 30.14 in 5.0 mi Calm Calm - N/A   Clear
2:54 AM 30.9 °F - 28.9 °F 92% 30.14 in 4.0 mi Calm Calm - N/A   Clear
3:54 AM 32.0 °F 28.7 °F 30.0 °F 92% 30.11 in 5.0 mi ESE 3.5 mph - N/A   Clear
4:54 AM 33.1 °F - 30.9 °F 92% 30.10 in 4.0 mi Calm Calm - N/A   Clear
6:54 AM 34.0 °F - 32.0 °F 92% 30.07 in 4.0 mi Calm Calm - N/A   Clear
7:54 AM 37.0 °F - 34.0 °F 89% 30.06 in 4.0 mi Calm Calm - N/A   Clear
8:54 AM 37.9 °F - 35.1 °F 89% 30.07 in 4.0 mi Calm Calm - N/A   Clear
9:54 AM 44.1 °F 42.5 °F 35.1 °F 71% 30.04 in 4.0 mi Variable 3.5 mph - N/A   Haze
10:54 AM 46.9 °F - 34.0 °F 61% 30.01 in 6.0 mi SW 9.2 mph - N/A   Haze
11:54 AM 51.1 °F - 34.0 °F 52% 29.98 in 6.0 mi SW 5.8 mph - N/A   Haze
12:54 PM 52.0 °F - 34.0 °F 50% 29.94 in 10.0 mi SSW 6.9 mph - N/A   Overcast
1:54 PM 53.1 °F - 34.0 °F 48% 29.91 in 10.0 mi WSW 5.8 mph - N/A   Partly Cloudy
2:54 PM 52.0 °F - 33.1 °F 49% 29.90 in 10.0 mi SW 6.9 mph - N/A   Overcast
3:54 PM 50.0 °F - 37.0 °F 61% 29.90 in 10.0 mi West 3.5 mph - 0.00 in   Overcast
4:54 PM 48.9 °F - 35.1 °F 59% 29.91 in 10.0 mi West 4.6 mph - N/A   Overcast
5:54 PM 46.0 °F 41.9 °F 39.0 °F 76% 29.93 in 10.0 mi West 8.1 mph - 0.00 in Rain Light Rain
6:54 PM 44.1 °F 42.5 °F 39.0 °F 82% 29.94 in 10.0 mi WSW 3.5 mph - 0.00 in   Overcast
7:54 PM 45.0 °F 42.6 °F 39.0 °F 80% 29.94 in 10.0 mi West 4.6 mph - N/A   Overcast
8:06 PM 45.0 °F 42.6 °F 39.0 °F 80% 29.92 in 10.0 mi West 4.6 mph - N/A   Overcast
9:12 PM 45.0 °F 39.3 °F 39.0 °F 80% 29.92 in 10.0 mi NW 11.5 mph - N/A   Overcast
9:54 PM 45.0 °F 40.6 °F 39.0 °F 80% 29.93 in 10.0 mi NW 8.1 mph - N/A   Overcast
10:54 PM 44.1 °F 41.5 °F 39.0 °F 82% 29.92 in 10.0 mi WNW 4.6 mph - N/A   Overcast
11:54 PM 44.1 °F 41.5 °F 39.0 °F 82% 29.91 in 10.0 mi West 4.6 mph - N/A   Overcast